Galesburg, IL

10:32 AM CDT on August 16, 2017 (GMT -0500)
Galesburg Municipal

Weather History for KGBG - February, 2015

Change the Weather History Date:

Tuesday, February 24, 2015

  Actual Average Record
Temperature  
Mean Temperature 20 °F -  
Max Temperature 35 °F 37 °F 68 °F (1976)
Min Temperature 5 °F 21 °F -6 °F (1993)
Degree Days  
Heating Degree Days 45    
Moisture  
Dew Point 12 °F    
Average Humidity 66    
Maximum Humidity 74    
Minimum Humidity 54    
Precipitation  
Precipitation 0.00 in - - ()
Sea Level Pressure  
Sea Level Pressure 29.93 in    
Wind  
Wind Speed 14 mph (WSW)    
Max Wind Speed 24 mph    
Max Gust Speed 30 mph    
Visibility 10 miles    
Events      
Averages and records for this station are not official NWS values.
T = Trace of Precipitation, MM = Missing Value Source: NWS Daily Summary

Daily Weather History Graph

Daily Weather History Graph

Search for Another Location

Airport or City:

Trip Planner

Search our weather history database for the weather conditions in past years. The results will help you decide how hot, cold, wet, or windy it might be!

Date:

Astronomy

Feb. 24, 2015 Rise Set
Actual Time 6:43 AM CST 5:46 PM CST
Civil Twilight 6:15 AM CST 6:14 PM CST
Nautical Twilight 5:44 AM CST 6:46 PM CST
Astronomical Twilight 5:12 AM CST 7:18 PM CST
Moon 10:16 AM CST (2/24) No Moon Set
Length of Visible Light 11h 58m
Length of Day
11h 03m
Waxing Crescent, 40% of the Moon is Illuminated
Feb 24
Waxing Crescent
Feb 25
First Quarter
Mar 5
Full
Mar 13
Last Quarter
Mar 20
New

Hourly Weather History & Observations

Time (CST) Temp. Windchill Dew Point Humidity Pressure Visibility Wind Dir Wind Speed Gust Speed Precip Events Conditions
12:15 AM 6.6 °F -9.5 °F -1.3 °F 70% 30.27 in 10.0 mi SSW 12.7 mph - N/A   Clear
12:35 AM 6.6 °F -8.8 °F -1.3 °F 70% 30.26 in 10.0 mi SSW 11.5 mph - N/A   Clear
12:55 AM 6.4 °F -10.5 °F -1.3 °F 71% 30.24 in 10.0 mi SSW 13.8 mph - N/A   Clear
1:15 AM 6.4 °F -9.0 °F -1.3 °F 71% 30.24 in 10.0 mi SSW 11.5 mph - N/A   Clear
1:35 AM 6.3 °F -7.5 °F -1.3 °F 71% 30.23 in 10.0 mi SSW 9.2 mph - N/A   Clear
1:55 AM 5.9 °F -8.0 °F -1.3 °F 72% 30.21 in 10.0 mi SSW 9.2 mph - N/A   Clear
2:15 AM 5.9 °F -9.7 °F -1.5 °F 72% 30.19 in 10.0 mi SSW 11.5 mph - N/A   Clear
2:35 AM 5.9 °F -10.5 °F -1.7 °F 71% 30.17 in 10.0 mi SSW 12.7 mph - N/A   Clear
2:55 AM 5.9 °F -9.7 °F -1.7 °F 71% 30.15 in 10.0 mi SSW 11.5 mph - N/A   Clear
3:15 AM 5.9 °F -10.5 °F -1.5 °F 72% 30.13 in 10.0 mi SSW 12.7 mph - N/A   Clear
3:35 AM 5.9 °F -10.5 °F -1.3 °F 72% 30.11 in 10.0 mi SSW 12.7 mph - N/A   Clear
3:55 AM 6.1 °F -10.2 °F -1.1 °F 72% 30.09 in 10.0 mi SSW 12.7 mph - N/A   Clear
4:15 AM 6.8 °F -11.3 °F -0.9 °F 71% 30.08 in 10.0 mi SSW 16.1 mph - N/A   Clear
4:35 AM 6.8 °F -11.3 °F -1.1 °F 70% 30.06 in 10.0 mi SSW 16.1 mph - N/A   Clear
4:55 AM 7.2 °F -11.4 °F -1.3 °F 68% 30.04 in 10.0 mi SSW 17.3 mph 24.2 mph N/A   Clear
5:15 AM 7.3 °F -10.6 °F -0.9 °F 69% 30.02 in 10.0 mi SSW 16.1 mph - N/A   Clear
5:35 AM 7.7 °F -10.1 °F -0.4 °F 70% 30.00 in 10.0 mi SSW 16.1 mph - N/A   Clear
5:55 AM 7.7 °F -9.5 °F -0.4 °F 70% 30.00 in 10.0 mi SSW 15.0 mph - N/A   Clear
6:15 AM 8.4 °F -9.7 °F 0.3 °F 70% 29.98 in 10.0 mi SSW 17.3 mph 21.9 mph N/A   Clear
6:35 AM 9.0 °F -8.5 °F 0.9 °F 70% 29.96 in 10.0 mi SSW 16.1 mph 24.2 mph N/A   Scattered Clouds
6:55 AM 9.9 °F -7.9 °F 1.4 °F 69% 29.95 in 10.0 mi SSW 17.3 mph - N/A   Mostly Cloudy
7:15 AM 10.6 °F -7.4 °F 2.3 °F 69% 29.94 in 10.0 mi SSW 18.4 mph - N/A   Mostly Cloudy
7:35 AM 12.0 °F -5.1 °F 3.4 °F 68% 29.93 in 10.0 mi SSW 17.3 mph - N/A   Overcast
7:55 AM 13.5 °F -4.6 °F 4.3 °F 67% 29.93 in 10.0 mi SSW 20.7 mph 25.3 mph N/A   Mostly Cloudy
8:15 AM 14.4 °F -1.5 °F 5.4 °F 67% 29.92 in 10.0 mi SSW 16.1 mph 23.0 mph N/A   Scattered Clouds
8:35 AM 17.1 °F 1.5 °F 7.2 °F 65% 29.91 in 10.0 mi SSW 17.3 mph 23.0 mph N/A   Clear
8:55 AM 19.4 °F 2.1 °F 8.4 °F 62% 29.90 in 10.0 mi SW 24.2 mph 29.9 mph N/A   Clear
9:15 AM 20.5 °F 4.3 °F 9.3 °F 62% 29.89 in 10.0 mi SW 21.9 mph 25.3 mph N/A   Clear
9:35 AM 21.0 °F 6.2 °F 9.5 °F 61% 29.89 in 10.0 mi SW 18.4 mph 28.8 mph N/A   Clear
9:55 AM 22.1 °F 6.4 °F 10.2 °F 60% 29.87 in 10.0 mi SW 21.9 mph 26.5 mph N/A   Clear
10:15 AM 24.3 °F 10.4 °F 11.3 °F 58% 29.87 in 10.0 mi SW 18.4 mph 26.5 mph N/A   Clear
10:35 AM 25.7 °F 12.3 °F 12.2 °F 57% 29.86 in 10.0 mi WSW 18.4 mph 26.5 mph N/A   Clear
10:55 AM 27.1 °F 15.4 °F 13.6 °F 57% 29.86 in 10.0 mi WSW 15.0 mph 23.0 mph N/A   Clear
11:15 AM 28.9 °F 17.3 °F 14.4 °F 55% 29.86 in 10.0 mi WSW 16.1 mph 24.2 mph N/A   Clear
11:35 AM 30.4 °F 16.7 °F 15.4 °F 54% 29.85 in 10.0 mi WSW 24.2 mph 27.6 mph N/A   Clear
11:55 AM 32.0 °F 20.1 °F 16.9 °F 54% 29.85 in 10.0 mi West 19.6 mph 27.6 mph N/A   Scattered Clouds
12:15 PM 32.0 °F 20.8 °F 17.4 °F 55% 29.83 in 10.0 mi WSW 17.3 mph 27.6 mph N/A   Mostly Cloudy
12:35 PM 31.6 °F 20.7 °F 18.0 °F 57% 29.83 in 10.0 mi West 16.1 mph 26.5 mph N/A   Overcast
12:55 PM 31.1 °F 18.6 °F 18.5 °F 60% 29.82 in 10.0 mi West 20.7 mph 26.5 mph N/A   Overcast
1:15 PM 32.0 °F 20.1 °F 19.9 °F 61% 29.81 in 10.0 mi West 19.6 mph 23.0 mph N/A   Overcast
1:35 PM 33.3 °F 22.1 °F 20.8 °F 60% 29.80 in 10.0 mi WSW 18.4 mph 26.5 mph N/A   Mostly Cloudy
1:55 PM 34.7 °F 22.8 °F 21.6 °F 59% 29.80 in 10.0 mi West 23.0 mph 26.5 mph N/A   Clear
2:15 PM 35.1 °F 23.5 °F 21.7 °F 58% 29.80 in 10.0 mi WSW 21.9 mph 26.5 mph N/A   Mostly Cloudy
2:35 PM 34.3 °F 23.9 °F 22.8 °F 63% 29.80 in 10.0 mi West 17.3 mph 25.3 mph N/A   Overcast
2:55 PM 34.9 °F 23.6 °F 23.7 °F 64% 29.80 in 10.0 mi West 20.7 mph 27.6 mph N/A   Overcast
3:15 PM 34.2 °F 23.0 °F 23.9 °F 66% 29.81 in 10.0 mi West 19.6 mph 24.2 mph N/A   Overcast
3:35 PM 35.8 °F 25.1 °F 23.4 °F 61% 29.80 in 10.0 mi West 19.6 mph 26.5 mph N/A   Mostly Cloudy
3:55 PM 35.6 °F 26.2 °F 24.1 °F 63% 29.80 in 10.0 mi West 15.0 mph 24.2 mph N/A   Overcast
4:15 PM 35.2 °F 25.8 °F 24.6 °F 65% 29.80 in 10.0 mi West 15.0 mph 19.6 mph N/A   Overcast
4:35 PM 35.6 °F 27.1 °F 23.9 °F 62% 29.80 in 10.0 mi West 12.7 mph - N/A   Overcast
4:55 PM 35.2 °F 25.8 °F 24.4 °F 65% 29.81 in 10.0 mi West 15.0 mph - N/A   Overcast
5:15 PM 34.7 °F 25.9 °F 25.3 °F 69% 29.81 in 10.0 mi West 12.7 mph - N/A   Overcast
5:35 PM 34.2 °F 23.6 °F 24.8 °F 69% 29.82 in 10.0 mi West 17.3 mph 25.3 mph N/A   Mostly Cloudy
5:55 PM 32.9 °F 23.2 °F 24.8 °F 72% 29.82 in 10.0 mi West 13.8 mph 23.0 mph N/A   Scattered Clouds
6:15 PM 31.8 °F 22.8 °F 24.3 °F 74% 29.83 in 10.0 mi West 11.5 mph - N/A   Clear
6:35 PM 31.5 °F 22.3 °F 23.9 °F 74% 29.84 in 10.0 mi West 11.5 mph - N/A   Mostly Cloudy
6:55 PM 30.9 °F 20.7 °F 23.0 °F 72% 29.85 in 10.0 mi West 13.8 mph - N/A   Scattered Clouds
7:15 PM 30.2 °F 20.2 °F 21.7 °F 71% 29.85 in 10.0 mi West 12.7 mph - N/A   Clear
7:35 PM 28.9 °F 19.8 °F 21.2 °F 73% 29.86 in 10.0 mi West 10.4 mph - N/A   Clear
7:55 PM 29.5 °F 18.8 °F 21.0 °F 71% 29.86 in 10.0 mi West 13.8 mph - N/A   Clear
8:15 PM 29.1 °F 20.0 °F 20.3 °F 70% 29.86 in 10.0 mi WNW 10.4 mph - N/A   Clear
8:35 PM 27.9 °F 18.4 °F 18.7 °F 68% 29.87 in 10.0 mi West 10.4 mph - N/A   Clear
8:55 PM 27.5 °F 17.4 °F 17.6 °F 66% 29.87 in 10.0 mi WNW 11.5 mph - N/A   Clear
9:15 PM 28.4 °F 17.0 °F 16.5 °F 61% 29.87 in 10.0 mi WNW 15.0 mph - N/A   Clear
9:35 PM 28.0 °F 17.5 °F 16.0 °F 61% 29.88 in 10.0 mi WNW 12.7 mph 18.4 mph N/A   Clear
9:55 PM 26.2 °F 16.4 °F 15.8 °F 65% 29.89 in 10.0 mi WNW 10.4 mph - N/A   Clear
10:15 PM 24.8 °F 16.1 °F 15.4 °F 68% 29.89 in 10.0 mi WNW 8.1 mph - N/A   Clear
10:35 PM 23.9 °F 14.2 °F 15.1 °F 69% 29.89 in 10.0 mi WNW 9.2 mph - N/A   Clear
10:55 PM 24.6 °F 14.4 °F 15.3 °F 68% 29.89 in 10.0 mi NW 10.4 mph - N/A   Clear
11:15 PM 23.9 °F 15.0 °F 14.9 °F 69% 29.88 in 10.0 mi NW 8.1 mph - N/A   Clear
11:35 PM 22.8 °F 15.5 °F 14.7 °F 71% 29.89 in 10.0 mi WNW 5.8 mph - N/A   Clear
11:55 PM 21.2 °F 13.6 °F 14.0 °F 74% 29.89 in 10.0 mi NW 5.8 mph - N/A   Clear